Find Starlink 33577

NORAD ID: 62762 Int'l Des: 2025-015 Owner: SPXS Country: US Constellation: starlink operational
LEOCIRCULAR

現在のビュー

3D地球を読み込み中...

About Starlink 33577

Starlink 33577 (NORAD 62762) is a starlink constellation satellite (v2 mini) launched Jan 21, 2025 by SPXS of US. It operates in LEO, CIRCULAR orbit with a mass of 575.00 kg.

Starlink 33577について

説明を読み込み中...

次回通過

Passes for default location (London). Set your location on the main map for personalized predictions.

高度履歴

Loading altitude history...

軌道要素

1 62762U 25015E 26171.36475235 .00013752 00000-0 45382-3 0 9991
2 62762 53.1584 204.6575 0001060 66.4602 293.6511 15.31720478 80217
Epoch: Jun 20, 2026 • Age: 25 hours

現在のステータス

高度 475.5 km
速度 7.63 km/s
衛星直下点 -17.92°S, 130.59°E
打ち上げ日 Jan 21, 2025
運用期間 1.4 years
タイプ internet

技術仕様

分類 Payload
質量 575.00 kg
乾燥質量 530.00 kg
総質量 575.00 kg
長さ 0.30 m
直径 4.10 m
スパン 29.00 m
形状 Box + pan
製造者 SPXS
バスタイプ Starlink V2MO
フェーズステータス In Orbit
所有者/国 SPXS/US

Most Searched